This demonstration page uses our WeatherBlox Daily Observations layout. Learn more.

Left ArrowRight Arrow

40.92945, -100.16068

Hourly Observations for March 11, 2021

Temp ( °F °C ) Dew Point ( °F °C ) Humidity (%) Winds ( mph kmh ) Pressure ( in mb ) Visibility ( mi km ) Precip ( " mm )
12:15 am 00:15 Clear 30 -0.9 27 -3 86 86 NW 10 17 30.10 1019 10 16 N/A
12:35 am 00:35 Clear 30 -1.1 26 -3.1 86 86 NW 14 22 30.09 1019 10 16 N/A
12:55 am 00:55 Clear 30 -1.1 26 -3.2 86 86 NW 14 22 30.09 1019 10 16 N/A
1:15 am 01:15 Clear 30 -1.3 26 -3.5 85 85 NW 9 15 30.10 1019 10 16 N/A
1:35 am 01:35 Clear 29 -1.8 25 -3.7 87 87 NW 6 9 30.12 1020 10 16 N/A
1:55 am 01:55 Clear 29 -1.8 25 -3.7 87 87 WNW 8 13 30.15 1021 10 16 N/A
2:15 am 02:15 Clear 29 -1.8 26 -3.6 88 88 WNW 8 13 30.16 1021 10 16 N/A
2:35 am 02:35 Clear 29 -1.8 26 -3.6 88 88 NW 7 11 30.17 1022 10 16 N/A
2:55 am 02:55 Clear 28 -2 25 -3.8 88 88 WNW 10 17 30.18 1022 10 16 N/A
3:15 am 03:15 Clear 29 -1.5 26 -3.5 86 86 WNW 10 17 30.16 1021 10 16 N/A
3:35 am 03:35 Clear 29 -1.4 26 -3.5 86 86 WNW 9 15 30.17 1022 10 16 N/A
3:56 am 03:56 Clear 28 -2 25 -4 86 86 WNW 6 9 30.19 1022 10 16 N/A
4:16 am 04:16 Clear 27 -3 25 -4 93 93 WNW 5 7 30.21 1023 10 16 N/A
4:36 am 04:36 Clear 28 -2 25 -4 86 86 W 7 11 30.21 1023 10 16 N/A
4:56 am 04:56 Clear 28 -2 25 -4 86 86 W 6 9 30.22 1023 10 16 N/A
5:17 am 05:17 Clear 27 -3 23 -5 86 86 NNW 5 7 30.23 1024 10 16 N/A
5:38 am 05:38 Clear 27 -3 23 -5 86 86 WNW 8 13 30.24 1024 10 16 N/A
5:56 am 05:56 Clear 25 -4 21 -6 86 86 NW 8 13 30.26 1025 10 16 N/A
6:17 am 06:17 Clear 25 -4 21 -6 86 86 NW 8 13 30.26 1025 10 16 N/A
6:37 am 06:37 Clear 23 -5 21 -6 93 93 NW 6 9 30.28 1025 10 16 N/A
6:56 am 06:56 Clear 23 -5 19 -7 86 86 NW 3 6 30.28 1025 10 16 N/A
7:16 am 07:16 Sunny 21 -6 19 -7 93 93 NW 5 7 30.30 1026 10 16 N/A
7:36 am 07:36 Sunny 23 -5 21 -6 93 93 WNW 5 7 30.30 1026 10 16 N/A
7:57 am 07:57 Sunny 27 -3 23 -5 86 86 WNW 6 9 30.29 1026 10 16 N/A
8:16 am 08:16 Sunny 28 -2 25 -4 86 86 WNW 7 11 30.29 1026 10 16 N/A
8:36 am 08:36 Sunny 30 -1 27 -3 86 86 WNW 9 15 30.29 1026 10 16 N/A
8:56 am 08:56 Sunny 32 undefined 27 -3 80 80 WNW 10 17 30.29 1026 10 16 N/A
9:16 am 09:16 Sunny 34 1 28 -2 81 81 NW 9 15 30.28 1025 10 16 N/A
9:38 am 09:38 Sunny 36 2 28 -2 75 75 WNW 9 15 30.28 1025 10 16 N/A
9:57 am 09:57 Sunny 37 3 28 -2 70 70 NW 8 13 30.26 1025 10 16 N/A
10:18 am 10:18 Sunny 39 4 28 -2 65 65 NNW 8 13 30.26 1025 10 16 N/A
10:38 am 10:38 Sunny 41 5 28 -2 61 61 NW 8 13 30.25 1024 10 16 N/A
10:56 am 10:56 Sunny 43 6 27 -3 53 53 W 6 9 30.24 1024 10 16 N/A
11:17 am 11:17 Sunny 43 6 28 -2 57 57 NW 6 9 30.24 1024 10 16 N/A
11:38 am 11:38 Sunny 45 7 28 -2 53 53 NW 8 13 30.23 1024 10 16 N/A
11:57 am 11:57 Sunny 45 7 27 -3 49 49 N 8 13 30.23 1024 10 16 N/A
12:38 pm 12:38 Sunny 46 8 23 -5 40 40 N N/A 30.22 1023 10 16 N/A
12:57 pm 12:57 Sunny 46 8 23 -5 40 40 N N/A 30.21 1023 10 16 N/A
1:16 pm 13:16 Sunny 48 9 21 -6 34 34 N N/A 30.19 1022 10 16 N/A
1:38 pm 13:38 Sunny 48 9 23 -5 37 37 NE 6 9 30.18 1022 10 16 N/A
1:57 pm 13:57 Sunny 50 10 21 -6 32 32 NNW 3 6 30.17 1022 10 16 N/A
2:17 pm 14:17 Sunny 50 10 21 -6 32 32 E 5 7 30.16 1021 10 16 N/A
2:37 pm 14:37 Sunny 52 11 19 -7 28 28 ENE 5 7 30.14 1021 10 16 N/A
2:56 pm 14:56 Sunny 52 11 19 -7 28 28 E 5 7 30.14 1021 10 16 N/A
3:19 pm 15:19 Sunny 52 11 19 -7 28 28 N N/A 30.14 1021 10 16 N/A
3:38 pm 15:38 Sunny 52 11 19 -7 28 28 NNE 5 7 30.14 1021 10 16 N/A
3:56 pm 15:56 Sunny 54 12 18 -8 24 24 ESE 8 13 30.13 1020 10 16 N/A
4:18 pm 16:18 Sunny 52 11 19 -7 28 28 N N/A 30.14 1021 10 16 N/A
4:40 pm 16:40 Sunny 54 12 16 -9 22 22 E 6 9 30.13 1020 10 16 N/A
4:58 pm 16:58 Sunny 52 11 18 -8 26 26 N N/A 30.14 1021 10 16 N/A
5:16 pm 17:16 Sunny 52 11 19 -7 28 28 E 6 9 30.14 1021 10 16 N/A
5:36 pm 17:36 Sunny 52 11 19 -7 28 28 SE 6 9 30.14 1021 10 16 N/A
5:56 pm 17:56 Sunny 52 11 19 -7 28 28 ESE 7 11 30.14 1021 10 16 N/A
6:16 pm 18:16 Sunny 50 10 21 -6 32 32 E 5 7 30.16 1021 10 16 N/A
6:38 pm 18:38 Sunny 46 8 21 -6 37 37 ENE 6 9 30.20 1023 10 16 N/A
6:58 pm 18:58 Clear 45 7 21 -6 39 39 E 7 11 30.21 1023 10 16 N/A
7:18 pm 19:18 Clear 43 6 21 -6 42 42 E 7 11 30.24 1024 10 16 N/A
7:37 pm 19:37 Clear 41 5 21 -6 45 45 E 7 11 30.25 1024 10 16 N/A
7:57 pm 19:57 Clear 39 4 21 -6 48 48 E 7 11 30.27 1025 10 16 N/A
8:16 pm 20:16 Clear 39 4 25 -4 56 56 E 7 11 30.29 1026 10 16 N/A
8:38 pm 20:38 Clear 37 3 23 -5 56 56 E 6 9 30.31 1026 10 16 N/A
9:00 pm 21:00 Clear 39 4 23 -5 52 52 E 7 11 30.30 1026 10 16 N/A
9:17 pm 21:17 Clear 39 4 25 -4 56 56 E 8 13 30.31 1026 10 16 N/A
9:37 pm 21:37 Clear 39 4 25 -4 56 56 ESE 8 13 30.32 1027 10 16 N/A
9:58 pm 21:58 Clear 36 2 25 -4 65 65 E 7 11 30.35 1028 10 16 N/A
10:17 pm 22:17 Clear 36 2 25 -4 65 65 E 6 9 30.35 1028 10 16 N/A
10:38 pm 22:38 Clear 37 3 25 -4 60 60 ESE 6 9 30.35 1028 10 16 N/A
10:57 pm 22:57 Clear 37 3 25 -4 60 60 ESE 7 11 30.35 1028 10 16 N/A
11:17 pm 23:17 Clear 37 3 25 -4 60 60 ESE 6 9 30.35 1028 10 16 N/A
11:38 pm 23:38 Clear 36 2 25 -4 65 65 ESE 7 11 30.37 1028 10 16 N/A
11:58 pm 23:58 Clear 37 3 25 -4 60 60 ESE 8 13 30.36 1028 10 16 N/A

Powered by AerisWeather